Change the Weather History Date:

Sunday, April 27, 2014

  Actual Average Record
Temperature  
Mean Temperature 41 °F 49 °F  
Max Temperature 47 °F 62 °F 92 °F (1952)
Min Temperature 34 °F 35 °F 18 °F (1994)
Degree Days  
Heating Degree Days 24 16  
Month to date heating degree days 640 590  
Since 1 July heating degree days 8656 8109  
Cooling Degree Days 0 0  
Month to date cooling degree days 0 0  
Year to date cooling degree days 0 0  
Moisture  
Dew Point 39 °F    
Average Humidity 83    
Maximum Humidity 100    
Minimum Humidity 65    
Precipitation  
Precipitation 0.73 in 0.05 in 1.12 in (1984)
Month to date precipitation 1.09 1.09  
Year to date precipitation 2.48 2.90  
Snow  
Snow T in 0.00 in 11.90 in (1984)
Month to date snowfall 3.9 4.0  
Since 1 July snowfall 40.2 50.6  
Snow Depth 0.00 in    
Sea Level Pressure  
Sea Level Pressure 29.59 in    
Wind  
Wind Speed 16 mph (East)    
Max Wind Speed 26 mph    
Max Gust Speed 32 mph    
Visibility 5 miles    
Events Rain    
T = Trace of Precipitation, MM = Missing Value Source: NWS Daily Summary

Daily Weather History Graph

Daily Weather History Graph

Search for Another Location

Airport or City:

Trip Planner

Search our weather history database for the weather conditions in past years. The results will help you decide how hot, cold, wet, or windy it might be!

Date:

Astronomy

Apr. 27, 2014 Rise Set
Actual Time 6:34 AM CDT 8:47 PM CDT
Civil Twilight 6:01 AM CDT 9:21 PM CDT
Nautical Twilight 5:20 AM CDT 10:02 PM CDT
Astronomical Twilight 4:33 AM CDT 10:49 PM CDT
Moon 5:43 AM CDT (4/27) 7:18 PM CDT (4/27)
Length of Visible Light 15h 19m
Length of Day
14h 13m
Waning Crescent, 3% of the Moon is Illuminated
Apr 27
Waning Crescent
Apr 29
New
May 6
First Quarter
May 14
Full
May 21
Last Quarter

Hourly Weather History & Observations

Time (CDT) Temp. Windchill Dew Point Humidity Pressure Visibility Wind Dir Wind Speed Gust Speed Precip Events Conditions
12:52 AM 46.0 °F 38.5 °F 35.1 °F 66% 29.70 in 10.0 mi East 19.6 mph 26.5 mph N/A   Overcast
1:52 AM 46.0 °F 38.5 °F 35.1 °F 66% 29.67 in 10.0 mi East 19.6 mph 26.5 mph N/A   Overcast
2:52 AM 45.0 °F 37.4 °F 36.0 °F 71% 29.64 in 10.0 mi East 18.4 mph 25.3 mph N/A   Overcast
3:52 AM 44.6 °F 36.4 °F 35.6 °F 71% 29.60 in 10.0 mi East 20.7 mph 26.5 mph N/A   Overcast
4:52 AM 44.1 °F 35.9 °F 37.0 °F 76% 29.62 in 10.0 mi East 19.6 mph - N/A   Overcast
5:26 AM 43.0 °F 34.8 °F 39.0 °F 86% 29.61 in 10.0 mi East 18.4 mph 29.9 mph 0.00 in Rain Light Rain
5:52 AM 42.1 °F 33.6 °F 39.0 °F 89% 29.61 in 10.0 mi East 18.4 mph - 0.01 in Rain Light Rain
6:26 AM 42.1 °F 34.5 °F 39.0 °F 89% 29.59 in 9.0 mi East 15.0 mph - 0.01 in Rain Light Rain
6:52 AM 41.0 °F 32.8 °F 39.0 °F 93% 29.62 in 7.0 mi East 16.1 mph 25.3 mph 0.04 in Rain Rain
7:52 AM 41.0 °F 34.7 °F 39.0 °F 93% 29.64 in 10.0 mi East 10.4 mph - 0.11 in Rain Light Rain
8:10 AM 41.0 °F 33.1 °F 37.9 °F 89% 29.61 in 10.0 mi East 15.0 mph - 0.00 in Rain Light Rain
8:52 AM 41.0 °F 33.5 °F 39.0 °F 93% 29.63 in 7.0 mi East 13.8 mph - 0.03 in Rain Light Rain
9:40 AM 41.0 °F 32.8 °F 39.0 °F 93% 29.58 in 10.0 mi East 16.1 mph - 0.00 in   Overcast
9:52 AM 41.0 °F 32.2 °F 39.0 °F 93% 29.61 in 10.0 mi East 18.4 mph - 0.00 in   Overcast
10:52 AM 41.0 °F 31.1 °F 39.0 °F 93% 29.60 in 10.0 mi East 23.0 mph 28.8 mph N/A   Overcast
11:52 AM 39.9 °F 30.2 °F 39.0 °F 97% 29.59 in 8.0 mi East 20.7 mph 27.6 mph N/A   Overcast
12:08 PM 39.9 °F 29.2 °F 39.0 °F 97% 29.55 in 7.0 mi East 25.3 mph 31.1 mph N/A   Overcast
12:44 PM 41.0 °F 32.5 °F 39.0 °F 93% 29.55 in 5.0 mi East 17.3 mph 26.5 mph N/A   Overcast
12:52 PM 41.0 °F 32.5 °F 39.0 °F 93% 29.58 in 4.0 mi East 17.3 mph 25.3 mph N/A   Overcast
1:37 PM 39.9 °F 31.8 °F 39.0 °F 97% 29.57 in 1.8 mi East 15.0 mph - 0.00 in Rain Light Rain
1:52 PM 39.9 °F 30.8 °F 39.0 °F 97% 29.60 in 1.0 mi East 18.4 mph - 0.02 in Rain Light Rain
2:45 PM 39.9 °F 32.1 °F 39.0 °F 97% 29.57 in 1.2 mi ENE 13.8 mph - 0.04 in Rain Light Rain
2:52 PM 39.9 °F 32.1 °F 39.0 °F 97% 29.60 in 1.2 mi ENE 13.8 mph - 0.04 in Rain Light Rain
3:10 PM 39.9 °F 31.4 °F 39.0 °F 97% 29.56 in 2.0 mi ENE 16.1 mph - 0.01 in Rain Light Rain
3:34 PM 41.0 °F 33.1 °F 39.0 °F 93% 29.55 in 1.8 mi ENE 15.0 mph - 0.01 in Rain Light Rain
3:52 PM 41.0 °F 33.1 °F 39.9 °F 96% 29.57 in 1.8 mi ENE 15.0 mph - 0.02 in Rain Light Rain
4:00 PM 41.0 °F 32.8 °F 39.9 °F 96% 29.54 in 2.5 mi ENE 16.1 mph - 0.00 in Rain Light Rain
4:07 PM 41.0 °F 32.8 °F 39.9 °F 96% 29.54 in 3.0 mi ENE 16.1 mph - 0.00 in Rain Light Rain
4:52 PM 42.1 °F 34.2 °F 41.0 °F 96% 29.58 in 8.0 mi East 16.1 mph - 0.01 in   Overcast
5:02 PM 42.1 °F 34.9 °F 39.9 °F 92% 29.54 in 2.5 mi East 13.8 mph - N/A   Overcast
5:13 PM 42.1 °F 33.9 °F 39.9 °F 92% 29.54 in 2.5 mi East 17.3 mph - 0.00 in Rain Light Rain
5:25 PM 42.1 °F 34.2 °F 39.9 °F 92% 29.54 in 2.5 mi East 16.1 mph - 0.00 in   Overcast
5:52 PM 41.0 °F 32.2 °F 39.9 °F 96% 29.58 in 2.5 mi East 18.4 mph - 0.00 in Rain Light Rain
5:59 PM 41.0 °F 33.5 °F 39.9 °F 96% 29.56 in 1.8 mi East 13.8 mph - 0.01 in Rain Light Rain
6:06 PM 41.0 °F 32.5 °F 39.9 °F 96% 29.56 in 2.0 mi East 17.3 mph - 0.01 in Rain Light Rain
6:14 PM 41.0 °F 33.5 °F 39.9 °F 96% 29.56 in 1.8 mi East 13.8 mph 23.0 mph 0.01 in Rain Light Rain
6:22 PM 41.0 °F 32.2 °F 39.9 °F 96% 29.57 in 2.0 mi East 18.4 mph 21.9 mph 0.01 in Rain Light Rain
6:52 PM 41.0 °F 34.3 °F 39.9 °F 96% 29.61 in 3.0 mi East 11.5 mph - 0.01 in Rain Light Rain
7:11 PM 41.0 °F 33.9 °F 39.0 °F 93% 29.58 in 8.0 mi East 12.7 mph - 0.01 in   Overcast
7:34 PM 41.0 °F 31.9 °F 39.0 °F 93% 29.59 in 2.0 mi ESE 19.6 mph 28.8 mph 0.01 in Rain Rain
7:44 PM 39.9 °F 31.4 °F 39.0 °F 97% 29.59 in 1.8 mi ESE 16.1 mph - 0.02 in Rain Light Rain
7:52 PM 39.9 °F 32.1 °F 39.0 °F 97% 29.62 in 2.0 mi ESE 13.8 mph - 0.03 in Rain Light Rain
8:05 PM 39.9 °F 32.9 °F 39.0 °F 97% 29.59 in 2.0 mi East 11.5 mph - 0.00 in Rain Light Rain
8:25 PM 39.9 °F 33.4 °F 39.9 °F 100% 29.59 in 4.0 mi ENE 10.4 mph - 0.01 in Rain Light Rain
8:52 PM 39.2 °F 31.6 °F 39.2 °F 100% 29.59 in 3.0 mi ENE 12.7 mph - N/A Rain Light Rain
9:52 PM 39.0 °F 31.0 °F 37.0 °F 93% 29.64 in 6.0 mi ENE 13.8 mph - 0.06 in Rain Rain
10:18 PM 37.9 °F 29.2 °F 37.0 °F 97% 29.59 in 6.0 mi ENE 15.0 mph - 0.05 in Rain Rain
10:38 PM 37.9 °F 29.2 °F 36.0 °F 93% 29.59 in 5.0 mi ENE 15.0 mph - 0.09 in Rain Rain
10:45 PM 37.9 °F 28.9 °F 36.0 °F 93% 29.59 in 6.0 mi ENE 16.1 mph - 0.11 in Rain Rain
10:52 PM 37.9 °F 29.6 °F 36.0 °F 93% 29.62 in 6.0 mi ENE 13.8 mph - 0.12 in Rain Rain
11:00 PM 37.9 °F 30.0 °F 36.0 °F 93% 29.58 in 6.0 mi ENE 12.7 mph - 0.02 in Rain Rain
11:52 PM 37.4 °F 29.3 °F 35.6 °F 93% 29.59 in 6.0 mi ENE 12.7 mph - N/A Rain Rain